• Em Portugal
  • Lista de países
  • Para 7 dias
  • Temperatura da água
  • Mapas de satélite
  • Mapa do tempo
  • Widgets de tempo
  • user-avatar
    Iniciar Sessão

    Previsão horária em Beleck

    Hoje, 16 Dezembro, Sábado

    Tempo Temperatura Precipitação Vento Pressão Humidade
    00:00 +15°C° 0 mm 2 m/s 765 mmHg 79%
    01:00 +15°C° 0 mm 2 m/s 765 mmHg 79%
    02:00 +15°C° 0 mm 2 m/s 765 mmHg 80%
    03:00 +15°C° 0,1 mm 2 m/s 765 mmHg 81%
    04:00 +15°C° 0,1 mm 2 m/s 765 mmHg 81%
    05:00 +15°C° 0,1 mm 2 m/s 765 mmHg 82%
    06:00 +15°C° 0,1 mm 2 m/s 765 mmHg 82%
    07:00 +15°C° 0,1 mm 2 m/s 765 mmHg 82%
    08:00 +15°C° 0,1 mm 2 m/s 765 mmHg 82%
    09:00 +16°C° 0,1 mm 2 m/s 765 mmHg 79%
    10:00 +17°C° 0,1 mm 2 m/s 765 mmHg 76%
    11:00 +18°C° 0,1 mm 2 m/s 765 mmHg 73%
    12:00 +18°C° 0,1 mm 2 m/s 764 mmHg 73%
    13:00 +18°C° 0,1 mm 2 m/s 764 mmHg 73%
    14:00 +18°C° 0,1 mm 2 m/s 764 mmHg 72%
    15:00 +18°C° 0,1 mm 2 m/s 764 mmHg 76%
    16:00 +17°C° 0,1 mm 2 m/s 764 mmHg 81%
    17:00 +16°C° 0,1 mm 2 m/s 764 mmHg 85%
    18:00 +16°C° 0,1 mm 2 m/s 764 mmHg 85%
    19:00 +16°C° 0,1 mm 2 m/s 765 mmHg 85%
    20:00 +16°C° 0,1 mm 2 m/s 765 mmHg 86%
    21:00 +16°C° 0,2 mm 2 m/s 765 mmHg 85%
    22:00 +16°C° 0,2 mm 2 m/s 765 mmHg 85%
    23:00 +16°C° 0,2 mm 3 m/s 765 mmHg 85%

    Amanhã, 17 Dezembro, Domingo

    Tempo Temperatura Precipitação Vento Pressão Humidade
    00:00 +16°C° 0,2 mm 2 m/s 765 mmHg 85%
    01:00 +16°C° 0,2 mm 2 m/s 765 mmHg 86%
    02:00 +16°C° 0,2 mm 2 m/s 765 mmHg 87%
    03:00 +16°C° 0,1 mm 2 m/s 764 mmHg 86%
    04:00 +16°C° 0,1 mm 2 m/s 764 mmHg 86%
    05:00 +16°C° 0,1 mm 2 m/s 764 mmHg 86%
    06:00 +16°C° 0,1 mm 3 m/s 764 mmHg 85%
    07:00 +16°C° 0,1 mm 3 m/s 764 mmHg 85%
    08:00 +16°C° 0,1 mm 3 m/s 764 mmHg 84%
    09:00 +17°C° 0,2 mm 4 m/s 764 mmHg 81%
    10:00 +18°C° 0,2 mm 4 m/s 764 mmHg 79%
    11:00 +17°C° 0,2 mm 5 m/s 764 mmHg 76%
    12:00 +17°C° 0,3 mm 5 m/s 764 mmHg 76%
    13:00 +17°C° 0,3 mm 5 m/s 763 mmHg 76%
    14:00 +19°C° 0,3 mm 5 m/s 763 mmHg 76%
    15:00 +17°C° 0,3 mm 5 m/s 763 mmHg 79%
    16:00 +16°C° 0,3 mm 5 m/s 763 mmHg 82%
    17:00 +16°C° 0,3 mm 5 m/s 763 mmHg 85%
    18:00 +16°C° 0,6 mm 5 m/s 763 mmHg 85%
    19:00 +16°C° 0,6 mm 5 m/s 763 mmHg 85%
    20:00 +16°C° 0,6 mm 5 m/s 764 mmHg 85%
    21:00 +16°C° 1 mm 5 m/s 764 mmHg 87%
    22:00 +16°C° 1 mm 5 m/s 764 mmHg 88%
    23:00 +15°C° 1 mm 5 m/s 764 mmHg 89%

    Depois de amanhã, 18 Dezembro, Segunda-feira

    Tempo Temperatura Precipitação Vento Pressão Humidade
    00:00 +15°C° 1 mm 5 m/s 764 mmHg 89%
    01:00 +15°C° 1 mm 5 m/s 763 mmHg 89%
    02:00 +15°C° 1 mm 5 m/s 763 mmHg 89%
    03:00 +15°C° 0,8 mm 5 m/s 763 mmHg 89%
    04:00 +15°C° 0,8 mm 5 m/s 763 mmHg 90%
    05:00 +15°C° 0,8 mm 4 m/s 763 mmHg 90%
    06:00 +15°C° 0,7 mm 4 m/s 763 mmHg 89%
    07:00 +15°C° 0,7 mm 4 m/s 763 mmHg 89%
    08:00 +17°C° 0,7 mm 4 m/s 763 mmHg 89%
    09:00 +16°C° 0,8 mm 5 m/s 763 mmHg 85%
    10:00 +17°C° 0,8 mm 5 m/s 763 mmHg 82%
    11:00 +19°C° 0,8 mm 6 m/s 763 mmHg 79%
    12:00 +19°C° 0,9 mm 6 m/s 762 mmHg 79%
    13:00 +19°C° 0,9 mm 6 m/s 762 mmHg 78%
    14:00 +19°C° 0,9 mm 6 m/s 762 mmHg 78%
    15:00 +17°C° 0,6 mm 6 m/s 761 mmHg 81%
    16:00 +17°C° 0,6 mm 6 m/s 761 mmHg 83%
    17:00 +16°C° 0,6 mm 6 m/s 761 mmHg 85%
    18:00 +16°C° 0,5 mm 6 m/s 761 mmHg 85%
    19:00 +15°C° 0,5 mm 6 m/s 762 mmHg 84%
    20:00 +15°C° 0,5 mm 6 m/s 762 mmHg 84%
    21:00 +15°C° 0,3 mm 6 m/s 762 mmHg 83%
    22:00 +15°C° 0,3 mm 7 m/s 762 mmHg 82%
    23:00 +15°C° 0,3 mm 7 m/s 762 mmHg 81%

    19 Dezembro, Terça-feira

    Tempo Temperatura Precipitação Vento Pressão Humidade
    00:00 +15°C° 0,2 mm 7 m/s 763 mmHg 80%
    01:00 +14°C° 0,2 mm 6 m/s 763 mmHg 79%
    02:00 +14°C° 0,2 mm 6 m/s 763 mmHg 78%
    03:00 +14°C° 0,3 mm 6 m/s 763 mmHg 77%
    04:00 +14°C° 0,3 mm 5 m/s 763 mmHg 76%
    05:00 +13°C° 0,3 mm 5 m/s 763 mmHg 75%
    06:00 +13°C° 0,2 mm 5 m/s 764 mmHg 74%
    07:00 +13°C° 0,2 mm 4 m/s 764 mmHg 73%
    08:00 +13°C° 0,2 mm 4 m/s 765 mmHg 72%
    09:00 +14°C° 0 mm 4 m/s 765 mmHg 67%
    10:00 +15°C° 0 mm 4 m/s 765 mmHg 61%
    11:00 +17°C° 0 mm 3 m/s 765 mmHg 56%
    12:00 +18°C° 0 mm 3 m/s 764 mmHg 54%
    13:00 +18°C° 0 mm 3 m/s 764 mmHg 53%
    14:00 +18°C° 0 mm 3 m/s 764 mmHg 51%
    15:00 +17°C° 0 mm 2 m/s 764 mmHg 55%
    16:00 +16°C° 0 mm 2 m/s 764 mmHg 59%
    17:00 +15°C° 0 mm 2 m/s 764 mmHg 63%
    18:00 +14°C° 0 mm 2 m/s 765 mmHg 62%
    19:00 +14°C° 0 mm 2 m/s 765 mmHg 62%
    20:00 +13°C° 0 mm 3 m/s 765 mmHg 62%
    21:00 +13°C° 0 mm 3 m/s 765 mmHg 62%
    22:00 +12°C° 0 mm 3 m/s 765 mmHg 61%
    23:00 +12°C° 0 mm 3 m/s 766 mmHg 61%

    20 Dezembro, Quarta-feira

    Tempo Temperatura Precipitação Vento Pressão Humidade
    00:00 +12°C° 0 mm 3 m/s 765 mmHg 61%
    01:00 +12°C° 0 mm 3 m/s 765 mmHg 60%
    02:00 +12°C° 0 mm 4 m/s 765 mmHg 60%
    03:00 +12°C° 0 mm 4 m/s 765 mmHg 59%
    04:00 +12°C° 0 mm 3 m/s 765 mmHg 58%
    05:00 +12°C° 0 mm 3 m/s 765 mmHg 58%
    06:00 +12°C° 0 mm 4 m/s 766 mmHg 58%
    07:00 +12°C° 0 mm 4 m/s 766 mmHg 57%
    08:00 +12°C° 0 mm 4 m/s 766 mmHg 57%
    09:00 +13°C° 0 mm 4 m/s 766 mmHg 54%
    10:00 +14°C° 0 mm 4 m/s 766 mmHg 51%
    11:00 +15°C° 0 mm 4 m/s 766 mmHg 48%
    12:00 +15°C° 0 mm 4 m/s 766 mmHg 48%
    13:00 +17°C° 0 mm 3 m/s 765 mmHg 47%
    14:00 +17°C° 0 mm 3 m/s 765 mmHg 47%
    15:00 +16°C° 0 mm 3 m/s 765 mmHg 51%
    16:00 +14°C° 0 mm 3 m/s 765 mmHg 55%
    17:00 +14°C° 0 mm 2 m/s 766 mmHg 59%
    18:00 +13°C° 0 mm 2 m/s 766 mmHg 60%
    19:00 +12°C° 0 mm 3 m/s 766 mmHg 60%
    20:00 +12°C° 0 mm 3 m/s 767 mmHg 61%
    21:00 +12°C° 0 mm 3 m/s 767 mmHg 61%
    22:00 +11°C° 0 mm 3 m/s 767 mmHg 61%
    23:00 +11°C° 0 mm 3 m/s 767 mmHg 61%

    21 Dezembro, Quinta-feira

    Tempo Temperatura Precipitação Vento Pressão Humidade
    00:00 +11°C° 0 mm 4 m/s 767 mmHg 62%
    01:00 +11°C° 0 mm 4 m/s 767 mmHg 62%
    02:00 +11°C° 0 mm 4 m/s 767 mmHg 62%
    03:00 +10°C° 0 mm 4 m/s 767 mmHg 62%
    04:00 +10°C° 0 mm 4 m/s 766 mmHg 63%
    05:00 +10°C° 0 mm 4 m/s 766 mmHg 63%
    06:00 +10°C° 0 mm 4 m/s 767 mmHg 62%
    07:00 +11°C° 0 mm 4 m/s 767 mmHg 61%
    08:00 +11°C° 0 mm 4 m/s 767 mmHg 60%
    09:00 +12°C° 0 mm 4 m/s 767 mmHg 56%
    10:00 +14°C° 0 mm 4 m/s 767 mmHg 51%
    11:00 +15°C° 0 mm 4 m/s 766 mmHg 46%
    12:00 +15°C° 0 mm 4 m/s 766 mmHg 44%
    13:00 +17°C° 0 mm 4 m/s 765 mmHg 42%
    14:00 +17°C° 0 mm 4 m/s 765 mmHg 39%
    15:00 +15°C° 0 mm 4 m/s 765 mmHg 42%
    16:00 +13°C° 0 mm 5 m/s 765 mmHg 46%
    17:00 +12°C° 0 mm 5 m/s 765 mmHg 49%
    18:00 +10°C° 0 mm 6 m/s 766 mmHg 49%
    19:00 +10°C° 0 mm 6 m/s 766 mmHg 49%
    20:00 +9°C° 0 mm 7 m/s 766 mmHg 50%
    21:00 +9°C° 0 mm 7 m/s 766 mmHg 49%
    22:00 +9°C° 0 mm 7 m/s 767 mmHg 48%
    23:00 +8°C° 0 mm 7 m/s 767 mmHg 47%
    Mostrar mais